Hourly Weather Juchitan de Zaragoza

Today, 4 December, Friday

Time Temperature Precipitation Wind Pressure Humidity
00:00 +23°C° 0 mm 8 mps 760 mmHg 72%
01:00 +23°C° 0 mm 8 mps 760 mmHg 73%
02:00 +23°C° 0 mm 8 mps 759 mmHg 74%
03:00 +22°C° 0 mm 8 mps 759 mmHg 74%
04:00 +22°C° 0 mm 8 mps 759 mmHg 74%
05:00 +22°C° 0 mm 8 mps 759 mmHg 73%
06:00 +22°C° 0 mm 8 mps 759 mmHg 73%
07:00 +24°C° 0 mm 8 mps 760 mmHg 69%
08:00 +26°C° 0 mm 8 mps 761 mmHg 64%
09:00 +27°C° 0 mm 9 mps 761 mmHg 60%
10:00 +28°C° 0 mm 9 mps 761 mmHg 57%
11:00 +29°C° 0 mm 9 mps 760 mmHg 54%
12:00 +31°C° 0 mm 10 mps 760 mmHg 51%
13:00 +31°C° 0 mm 10 mps 759 mmHg 52%
14:00 +29°C° 0 mm 10 mps 759 mmHg 53%
15:00 +29°C° 0 mm 10 mps 758 mmHg 54%
16:00 +28°C° 0 mm 9 mps 758 mmHg 58%
17:00 +26°C° 0 mm 9 mps 759 mmHg 63%
18:00 +24°C° 0 mm 9 mps 759 mmHg 67%
19:00 +24°C° 0 mm 8 mps 760 mmHg 68%
20:00 +23°C° 0 mm 8 mps 760 mmHg 70%
21:00 +23°C° 0 mm 8 mps 761 mmHg 71%
22:00 +23°C° 0 mm 8 mps 761 mmHg 72%
23:00 +22°C° 0 mm 8 mps 761 mmHg 72%

Tomorrow, 5 December, Saturday

Time Temperature Precipitation Wind Pressure Humidity
00:00 +22°C° 0 mm 8 mps 761 mmHg 73%
01:00 +22°C° 0 mm 8 mps 761 mmHg 73%
02:00 +22°C° 0 mm 8 mps 760 mmHg 74%
03:00 +22°C° 0 mm 7 mps 760 mmHg 74%
04:00 +22°C° 0 mm 7 mps 760 mmHg 74%
05:00 +22°C° 0 mm 7 mps 760 mmHg 73%
06:00 +22°C° 0 mm 7 mps 760 mmHg 73%
07:00 +23°C° 0 mm 7 mps 761 mmHg 68%
08:00 +24°C° 0 mm 7 mps 761 mmHg 64%
09:00 +27°C° 0 mm 7 mps 761 mmHg 59%
10:00 +28°C° 0 mm 8 mps 761 mmHg 56%
11:00 +29°C° 0 mm 8 mps 761 mmHg 52%
12:00 +32°C° 0 mm 8 mps 760 mmHg 49%
13:00 +32°C° 0 mm 8 mps 759 mmHg 50%
14:00 +32°C° 0 mm 8 mps 759 mmHg 50%
15:00 +32°C° 0 mm 8 mps 758 mmHg 51%
16:00 +31°C° 0 mm 8 mps 758 mmHg 57%
17:00 +28°C° 0 mm 7 mps 758 mmHg 63%
18:00 +27°C° 0 mm 7 mps 758 mmHg 69%
19:00 +26°C° 0 mm 7 mps 759 mmHg 71%
20:00 +24°C° 0 mm 6 mps 760 mmHg 74%
21:00 +24°C° 0 mm 6 mps 761 mmHg 77%
22:00 +24°C° 0 mm 6 mps 760 mmHg 77%
23:00 +23°C° 0 mm 6 mps 760 mmHg 78%

Day after tomorrow, 6 December, Sunday

Time Temperature Precipitation Wind Pressure Humidity
00:00 +23°C° 0 mm 6 mps 760 mmHg 79%
01:00 +23°C° 0 mm 6 mps 759 mmHg 80%
02:00 +22°C° 0 mm 6 mps 759 mmHg 81%
03:00 +22°C° 0 mm 6 mps 759 mmHg 82%
04:00 +22°C° 0 mm 6 mps 759 mmHg 82%
05:00 +22°C° 0 mm 6 mps 759 mmHg 82%
06:00 +22°C° 0 mm 6 mps 759 mmHg 83%
07:00 +23°C° 0 mm 7 mps 759 mmHg 76%
08:00 +26°C° 0 mm 7 mps 760 mmHg 68%
09:00 +27°C° 0 mm 7 mps 760 mmHg 61%
10:00 +29°C° 0 mm 8 mps 760 mmHg 57%
11:00 +31°C° 0 mm 9 mps 760 mmHg 53%
12:00 +32°C° 0 mm 9 mps 759 mmHg 49%
13:00 +32°C° 0 mm 9 mps 759 mmHg 51%
14:00 +32°C° 0 mm 9 mps 758 mmHg 52%
15:00 +31°C° 0 mm 9 mps 757 mmHg 54%
16:00 +29°C° 0 mm 9 mps 758 mmHg 58%
17:00 +27°C° 0 mm 8 mps 758 mmHg 63%
18:00 +26°C° 0 mm 8 mps 759 mmHg 67%
19:00 +24°C° 0 mm 8 mps 759 mmHg 68%
20:00 +24°C° 0 mm 8 mps 760 mmHg 70%
21:00 +23°C° 0 mm 8 mps 760 mmHg 71%
22:00 +23°C° 0 mm 8 mps 760 mmHg 72%
23:00 +23°C° 0 mm 8 mps 760 mmHg 73%

7 December, Monday

Time Temperature Precipitation Wind Pressure Humidity
00:00 +23°C° 0 mm 8 mps 760 mmHg 74%
01:00 +23°C° 0 mm 8 mps 759 mmHg 74%
02:00 +23°C° 0 mm 8 mps 759 mmHg 74%
03:00 +22°C° 0 mm 8 mps 759 mmHg 74%
04:00 +22°C° 0 mm 8 mps 759 mmHg 74%
05:00 +22°C° 0 mm 8 mps 759 mmHg 74%
06:00 +22°C° 0 mm 8 mps 759 mmHg 74%
07:00 +23°C° 0 mm 9 mps 760 mmHg 70%
08:00 +24°C° 0 mm 9 mps 760 mmHg 66%
09:00 +26°C° 0 mm 10 mps 761 mmHg 62%
10:00 +27°C° 0 mm 10 mps 760 mmHg 59%
11:00 +28°C° 0 mm 10 mps 760 mmHg 55%
12:00 +29°C° 0 mm 10 mps 760 mmHg 52%
13:00 +29°C° 0 mm 10 mps 759 mmHg 53%
14:00 +28°C° 0 mm 10 mps 759 mmHg 54%
15:00 +28°C° 0 mm 10 mps 758 mmHg 55%
16:00 +27°C° 0 mm 10 mps 759 mmHg 59%
17:00 +24°C° 0 mm 10 mps 759 mmHg 64%
18:00 +23°C° 0 mm 9 mps 759 mmHg 68%
19:00 +23°C° 0 mm 9 mps 760 mmHg 69%
20:00 +22°C° 0 mm 9 mps 761 mmHg 71%
21:00 +22°C° 0 mm 9 mps 762 mmHg 72%
22:00 +22°C° 0 mm 9 mps 762 mmHg 72%
23:00 +22°C° 0 mm 9 mps 762 mmHg 72%

8 December, Tuesday

Time Temperature Precipitation Wind Pressure Humidity
00:00 +22°C° 0 mm 9 mps 761 mmHg 72%
01:00 +21°C° 0 mm 9 mps 761 mmHg 72%
02:00 +21°C° 0 mm 9 mps 761 mmHg 73%
03:00 +21°C° 0 mm 9 mps 761 mmHg 73%
04:00 +21°C° 0 mm 9 mps 761 mmHg 74%
05:00 +21°C° 0 mm 9 mps 761 mmHg 74%
06:00 +21°C° 0 mm 9 mps 761 mmHg 74%
07:00 +23°C° 0 mm 10 mps 762 mmHg 69%
08:00 +24°C° 0 mm 10 mps 762 mmHg 65%
09:00 +26°C° 0 mm 11 mps 763 mmHg 60%
10:00 +27°C° 0 mm 11 mps 763 mmHg 57%
11:00 +27°C° 0 mm 11 mps 762 mmHg 54%
12:00 +28°C° 0 mm 12 mps 762 mmHg 51%
13:00 +28°C° 0 mm 12 mps 761 mmHg 52%
14:00 +28°C° 0 mm 12 mps 761 mmHg 53%
15:00 +27°C° 0 mm 12 mps 760 mmHg 54%
16:00 +26°C° 0 mm 11 mps 761 mmHg 58%
17:00 +24°C° 0 mm 11 mps 761 mmHg 63%
18:00 +23°C° 0 mm 10 mps 762 mmHg 67%
19:00 +22°C° 0 mm 10 mps 762 mmHg 68%
20:00 +22°C° 0 mm 10 mps 763 mmHg 69%
21:00 +22°C° 0 mm 10 mps 763 mmHg 70%
22:00 +22°C° 0 mm 10 mps 763 mmHg 70%
23:00 +22°C° 0 mm 10 mps 763 mmHg 70%

9 December, Wednesday

Time Temperature Precipitation Wind Pressure Humidity
00:00 +22°C° 0 mm 10 mps 763 mmHg 70%
01:00 +22°C° 0 mm 10 mps 763 mmHg 69%
02:00 +22°C° 0 mm 10 mps 762 mmHg 69%
03:00 +22°C° 0 mm 10 mps 762 mmHg 68%
04:00 +22°C° 0 mm 10 mps 762 mmHg 68%
05:00 +22°C° 0 mm 10 mps 762 mmHg 69%
06:00 +22°C° 0 mm 10 mps 763 mmHg 69%
07:00 +22°C° 0 mm 10 mps 763 mmHg 66%
08:00 +23°C° 0 mm 11 mps 763 mmHg 63%
09:00 +24°C° 0 mm 11 mps 764 mmHg 59%
10:00 +26°C° 0 mm 11 mps 763 mmHg 57%
11:00 +27°C° 0 mm 11 mps 763 mmHg 54%
12:00 +28°C° 0 mm 11 mps 763 mmHg 51%
13:00 +28°C° 0 mm 11 mps 762 mmHg 52%
14:00 +28°C° 0 mm 11 mps 761 mmHg 52%
15:00 +27°C° 0 mm 11 mps 760 mmHg 53%
16:00 +26°C° 0 mm 11 mps 761 mmHg 57%
17:00 +24°C° 0 mm 10 mps 761 mmHg 62%
18:00 +23°C° 0 mm 10 mps 761 mmHg 66%
19:00 +22°C° 0 mm 9 mps 762 mmHg 68%
20:00 +22°C° 0 mm 9 mps 762 mmHg 69%
21:00 +22°C° 0 mm 9 mps 763 mmHg 71%
22:00 +22°C° 0 mm 9 mps 762 mmHg 71%
23:00 +22°C° 0 mm 9 mps 762 mmHg 72%
Show more